Romeoville, IL

8:27 AM CDT on April 26, 2017 (GMT -0500)
Lewis University

Weather History for KLOT - February, 2013

Change the Weather History Date:

Friday, February 22, 2013

  Actual Average Record
Temperature  
Mean Temperature 29 °F 30 °F  
Max Temperature 34 °F 38 °F 66 °F (2017)
Min Temperature 23 °F 22 °F 4 °F (2015)
Degree Days  
Heating Degree Days 36 35  
Month to date heating degree days 863 845  
Since 1 July heating degree days 4241 4526  
Cooling Degree Days 0 0  
Month to date cooling degree days 0 0  
Year to date cooling degree days 0 0  
Moisture  
Dew Point 25 °F    
Average Humidity 90    
Maximum Humidity 100    
Minimum Humidity 77    
Precipitation  
Precipitation 0.26 in 0.08 in 0.27 in (1994)
Month to date precipitation 1.88 1.30  
Year to date precipitation 5.24 3.23  
Snow  
Snow 2.10 in 0.20 in 3.50 in (1994)
Month to date snowfall 7.6 5.1  
Since 1 July snowfall 10.1 26.1  
Snow Depth 0.00 in    
Sea Level Pressure  
Sea Level Pressure 29.86 in    
Wind  
Wind Speed 13 mph (SSW)    
Max Wind Speed 24 mph    
Max Gust Speed 29 mph    
Visibility 6 miles    
Events Rain , Snow , Thunderstorm    
T = Trace of Precipitation, MM = Missing Value Source: NWS Daily Summary

Daily Weather History Graph

Daily Weather History Graph

Search for Another Location

Airport or City:

Trip Planner

Search our weather history database for the weather conditions in past years. The results will help you decide how hot, cold, wet, or windy it might be!

Date:

Astronomy

Feb. 22, 2013 Rise Set
Actual Time 6:37 AM CST 5:34 PM CST
Civil Twilight 6:09 AM CST 6:02 PM CST
Nautical Twilight 5:37 AM CST 6:35 PM CST
Astronomical Twilight 5:04 AM CST 7:07 PM CST
Moon 2:44 PM CST (2/22) 4:24 AM CST (2/22)
Length of Visible Light 11h 53m
Length of Day
10h 57m
Waxing Gibbous, 90% of the Moon is Illuminated
Feb 22
Waxing Gibbous
Feb 25
Full
Mar 4
Last Quarter
Mar 11
New
Mar 19
First Quarter

Hourly Weather History & Observations

Time (CST) Temp. Windchill Dew Point Humidity Pressure Visibility Wind Dir Wind Speed Gust Speed Precip Events Conditions
12:15 AM 25.2 °F 13.3 °F 23.7 °F 94% 29.95 in 0.8 mi East 13.8 mph - N/A Snow Snow
12:35 AM 24.8 °F 12.4 °F 23.5 °F 95% 29.94 in 0.8 mi East 15.0 mph - N/A Snow Snow
12:55 AM 24.6 °F 13.8 °F 23.0 °F 94% 29.94 in 1.2 mi East 11.5 mph - N/A Snow Light Snow
1:15 AM 24.4 °F 11.5 °F 23.0 °F 94% 29.92 in 1.0 mi East 16.1 mph 20.7 mph N/A Snow Light Snow
1:35 AM 24.3 °F 10.8 °F 22.6 °F 94% 29.91 in 1.0 mi East 17.3 mph - N/A Snow Light Snow
1:55 AM 23.9 °F 10.8 °F 22.1 °F 93% 29.90 in 1.8 mi East 16.1 mph 21.9 mph N/A Snow Light Snow
2:15 AM 23.7 °F 11.0 °F 22.1 °F 94% 29.89 in 1.5 mi East 15.0 mph - N/A Snow , Thunderstorm Light Thunderstorms and Snow
2:35 AM 23.4 °F 11.6 °F 22.1 °F 95% 29.89 in 1.0 mi East 12.7 mph - N/A Snow , Thunderstorm Light Thunderstorms and Snow
2:55 AM 23.4 °F 12.2 °F 22.1 °F 95% 29.88 in 1.2 mi East 11.5 mph - N/A Snow , Thunderstorm Light Thunderstorms and Snow
3:15 AM 23.2 °F 12.6 °F 21.9 °F 95% 29.88 in 1.8 mi East 10.4 mph - N/A Snow Light Snow
3:35 AM 23.0 °F 11.7 °F 21.7 °F 95% 29.87 in 1.8 mi East 11.5 mph - N/A Snow , Thunderstorm Light Thunderstorms and Snow
3:55 AM 23.0 °F 12.4 °F 21.7 °F 95% 29.86 in 2.5 mi East 10.4 mph - N/A Snow Light Snow
4:15 AM 23.0 °F 13.1 °F 21.9 °F 96% 29.86 in 1.8 mi East 9.2 mph - N/A Snow , Thunderstorm Light Thunderstorms and Snow
4:35 AM 23.2 °F 13.3 °F 21.9 °F 95% 29.85 in 1.8 mi East 9.2 mph - N/A Snow Light Snow
4:55 AM 23.4 °F 13.5 °F 22.1 °F 95% 29.85 in 2.5 mi East 9.2 mph - N/A Snow Light Snow
5:15 AM 23.5 °F 13.7 °F 22.1 °F 94% 29.84 in 2.5 mi East 9.2 mph - N/A   Overcast
5:35 AM 23.5 °F 13.7 °F 22.1 °F 94% 29.84 in 3.0 mi East 9.2 mph - N/A   Overcast
5:55 AM 23.7 °F 14.0 °F 22.5 °F 95% 29.83 in 3.0 mi East 9.2 mph - N/A   Overcast
6:15 AM 23.9 °F 15.0 °F 22.5 °F 94% 29.83 in 5.0 mi East 8.1 mph - N/A Snow Light Snow
6:35 AM 24.8 °F 16.9 °F 23.0 °F 93% 29.82 in 7.0 mi East 6.9 mph - N/A   Overcast
6:55 AM 24.6 °F 16.7 °F 23.0 °F 94% 29.82 in 7.0 mi ESE 6.9 mph - N/A   Overcast
7:15 AM 25.2 °F 17.3 °F 23.5 °F 94% 29.82 in 7.0 mi ESE 6.9 mph - N/A   Overcast
7:35 AM 25.7 °F 17.1 °F 23.9 °F 93% 29.81 in 7.0 mi ESE 8.1 mph - N/A   Overcast
7:55 AM 26.4 °F 18.0 °F 24.8 °F 94% 29.82 in 7.0 mi SE 8.1 mph - N/A   Overcast
8:15 AM 27.0 °F 17.3 °F 25.3 °F 94% 29.82 in 7.0 mi SE 10.4 mph - N/A   Overcast
8:35 AM 27.5 °F 18.0 °F 25.7 °F 93% 29.81 in 5.0 mi SE 10.4 mph - N/A   Overcast
8:55 AM 27.5 °F 18.6 °F 26.4 °F 96% 29.81 in 3.0 mi SE 9.2 mph - N/A   Overcast
9:15 AM 28.0 °F 19.3 °F 27.0 °F 96% 29.81 in 4.0 mi SSE 9.2 mph - N/A   Overcast
9:35 AM 28.0 °F 18.6 °F 27.3 °F 97% 29.82 in 1.8 mi SSE 10.4 mph - N/A   Overcast
9:55 AM 28.4 °F 19.7 °F 27.9 °F 98% 29.82 in 1.2 mi SSE 9.2 mph - N/A   Overcast
10:15 AM 28.9 °F 21.1 °F 28.8 °F 99% 29.81 in 0.8 mi SSE 8.1 mph - N/A   Overcast
10:35 AM 29.5 °F 22.5 °F 29.3 °F 99% 29.82 in 0.5 mi SSE 6.9 mph - N/A   Light Freezing Rain
10:55 AM 30.2 °F 23.4 °F 30.2 °F 100% 29.83 in 0.5 mi South 6.9 mph - N/A   Light Freezing Rain
11:15 AM 30.9 °F 24.3 °F 30.9 °F 100% 29.83 in 0.5 mi South 6.9 mph - N/A   Light Freezing Rain
11:35 AM 31.8 °F 24.6 °F 31.8 °F 100% 29.83 in 0.5 mi SSW 8.1 mph - N/A   Light Freezing Rain
11:55 AM 32.0 °F 24.8 °F 32.0 °F 100% 29.82 in 1.5 mi SSW 8.1 mph - N/A Rain Rain
12:15 PM 32.5 °F 24.8 °F 32.5 °F 100% 29.81 in 2.5 mi SW 9.2 mph - N/A Rain Rain
12:35 PM 33.1 °F 24.9 °F 32.4 °F 97% 29.81 in 2.5 mi SW 10.4 mph 16.1 mph N/A Snow Light Snow
12:55 PM 33.1 °F 24.9 °F 32.0 °F 96% 29.80 in 5.0 mi WSW 10.4 mph - N/A Rain Rain
1:15 PM 33.8 °F 25.3 °F 32.0 °F 93% 29.80 in 10.0 mi WSW 11.5 mph - N/A   Overcast
1:35 PM 33.8 °F 23.9 °F 31.6 °F 92% 29.80 in 10.0 mi WSW 15.0 mph 19.6 mph N/A   Overcast
1:55 PM 33.4 °F 22.7 °F 31.1 °F 91% 29.81 in 10.0 mi WSW 17.3 mph - N/A   Overcast
2:15 PM 33.3 °F 22.8 °F 30.7 °F 90% 29.81 in 10.0 mi WSW 16.1 mph 21.9 mph N/A   Overcast
2:35 PM 33.1 °F 22.2 °F 30.6 °F 90% 29.82 in 10.0 mi WSW 17.3 mph 20.7 mph N/A   Overcast
2:55 PM 33.1 °F 21.2 °F 29.7 °F 87% 29.82 in 10.0 mi WSW 20.7 mph 25.3 mph N/A   Overcast
3:15 PM 32.5 °F 20.2 °F 27.5 °F 82% 29.84 in 10.0 mi WSW 21.9 mph 26.5 mph N/A   Overcast
3:35 PM 32.0 °F 19.5 °F 25.9 °F 78% 29.84 in 10.0 mi WSW 21.9 mph 28.8 mph N/A   Overcast
3:55 PM 31.6 °F 18.4 °F 25.5 °F 78% 29.84 in 10.0 mi West 24.2 mph 28.8 mph N/A   Overcast
4:15 PM 31.1 °F 20.1 °F 25.3 °F 79% 29.85 in 10.0 mi WSW 16.1 mph - N/A   Overcast
4:35 PM 30.7 °F 19.6 °F 25.3 °F 80% 29.86 in 10.0 mi West 16.1 mph - N/A   Overcast
4:55 PM 30.2 °F 19.3 °F 23.9 °F 77% 29.87 in 10.0 mi West 15.0 mph - N/A   Overcast
5:15 PM 30.2 °F 19.3 °F 24.1 °F 78% 29.87 in 10.0 mi WSW 15.0 mph 21.9 mph N/A   Overcast
5:35 PM 30.2 °F 20.8 °F 24.4 °F 79% 29.87 in 10.0 mi WSW 11.5 mph 19.6 mph N/A   Overcast
5:55 PM 30.0 °F 18.7 °F 24.6 °F 80% 29.88 in 10.0 mi WSW 16.1 mph - N/A   Overcast
6:15 PM 29.8 °F 18.9 °F 24.8 °F 81% 29.89 in 10.0 mi SW 15.0 mph 19.6 mph N/A   Overcast
6:35 PM 29.7 °F 17.4 °F 24.6 °F 81% 29.89 in 10.0 mi WSW 18.4 mph 24.2 mph N/A   Overcast
6:55 PM 29.5 °F 18.0 °F 24.6 °F 82% 29.89 in 10.0 mi WSW 16.1 mph 20.7 mph N/A   Overcast
7:15 PM 29.3 °F 18.2 °F 24.6 °F 83% 29.90 in 10.0 mi WSW 15.0 mph - N/A   Overcast
7:35 PM 29.1 °F 17.9 °F 24.4 °F 83% 29.90 in 10.0 mi WSW 15.0 mph 20.7 mph N/A   Overcast
7:55 PM 28.9 °F 17.7 °F 24.4 °F 83% 29.91 in 10.0 mi WSW 15.0 mph - N/A Snow Light Snow
8:15 PM 28.8 °F 17.5 °F 24.6 °F 84% 29.91 in 7.0 mi WSW 15.0 mph - N/A Snow Light Snow
8:35 PM 28.4 °F 18.5 °F 24.8 °F 86% 29.91 in 7.0 mi WSW 11.5 mph - N/A Snow Light Snow
8:55 PM 28.4 °F 17.5 °F 24.6 °F 86% 29.91 in 7.0 mi WSW 13.8 mph 20.7 mph N/A Snow Light Snow
9:15 PM 28.4 °F 17.5 °F 24.4 °F 85% 29.91 in 10.0 mi WSW 13.8 mph - N/A Snow Light Snow
9:35 PM 28.0 °F 17.0 °F 24.3 °F 86% 29.92 in 7.0 mi WSW 13.8 mph 18.4 mph N/A Snow Light Snow
9:55 PM 27.7 °F 16.6 °F 24.3 °F 87% 29.91 in 7.0 mi WSW 13.8 mph 18.4 mph N/A Snow Light Snow
10:15 PM 27.5 °F 15.9 °F 23.9 °F 86% 29.91 in 10.0 mi WSW 15.0 mph 19.6 mph N/A Snow Light Snow
10:35 PM 28.4 °F 16.6 °F 24.8 °F 86% 29.91 in 10.0 mi WSW 16.1 mph - N/A Snow Light Snow
10:55 PM 27.5 °F 16.3 °F 23.7 °F 86% 29.92 in 10.0 mi WSW 13.8 mph 19.6 mph N/A Snow Light Snow
11:15 PM 27.5 °F 16.3 °F 23.7 °F 86% 29.92 in 10.0 mi WSW 13.8 mph 18.4 mph N/A   Overcast
11:35 PM 27.5 °F 16.3 °F 23.7 °F 86% 29.91 in 10.0 mi West 13.8 mph - N/A   Overcast
11:55 PM 27.5 °F 16.8 °F 23.5 °F 85% 29.92 in 10.0 mi West 12.7 mph - N/A   Overcast